Location: ????? ??????
(37.8317°N, 23.8750°E)
Time: 13:39:47
(UTC+00:00)

Meteor 2-1 Rocket - Pass Details

Date: 20 January 2021
Orbit: 827 x 910 km, 81.3° (Epoch: 04 March)

Event Time Altitude Azimuth Distance (km) Brightness Sun altitude
Rises 16:59:57 0° 353° (N) 3,406 7.3 -16.7°
Reaches altitude 10° 17:02:24 10° 355° (N) 2,458 6.5 -17.2°
Maximum altitude 17:07:57 73° 80° (E) 868 4.0 -18.3°
Drops below altitude 10° 17:13:25 10° 166° (SSE) 2,421 6.5 -19.3°
Sets 17:15:48 0° 168° (SSE) 3,350 7.3 -19.8°
